Simultaneous Nadir Overpasses (SNOs) Predictions

Prediction of SNOs between METOP-A and NOAA-19 Satellite Orbit:

Table of predicted SNOs for the next 14.0 days since TLE Epoch: 1/14/2013
Index Date (METOP-A) Time (METOP-A) Lat,Lon (METOP-A) SZA (METOP-A ) Date (NOAA-19) Time (NOAA-19) Lat,Lon (NOAA-19) SZA (NOAA-19 ) Distance(km) Time Diff (sec)
1 01/19/2013 12:29:18 73.97, -13.13 94.28 01/19/2013 12:28:11 73.97, -16.01 94.42 88.64 67
2 01/19/2013 13:20:11 -73.41, 152.88 86.24 01/19/2013 13:18:57 -73.43, 152.55 86.19 10.69 74
3 01/19/2013 14:10:52 73.35, -39.91 93.71 01/19/2013 14:10:03 73.34, -40.02 93.71 3.76 49
4 01/19/2013 15:01:35 -73.29, 127.27 86.36 01/19/2013 15:00:59 -73.29, 127.35 86.35 2.65 36
5 01/19/2013 15:52:15 73.28, -65.42 93.63 01/19/2013 15:52:07 73.30, -65.45 93.65 2.39 8
6
